Time,TemperatureF,DewpointF,PressureIn,WindDirection,WindDirectionDegrees,WindSpeedMPH,WindSpeedGustMPH,Humidity,HourlyPrecipIn,Conditions,Clouds,dailyrainin,SoftwareType,DateUTC
2013-02-12 00:01:00,34.0,1.0,-100.00,NNE,26,5.0,7.0,24,-99.99,,,-99.99,,2013-02-12 08:01:00,
2013-02-12 00:11:00,35.0,2.0,-100.00,NNE,15,6.0,8.0,24,-99.99,,,-99.99,,2013-02-12 08:11:00,
2013-02-12 00:21:00,34.0,2.0,-100.00,NNE,13,7.0,8.0,25,-99.99,,,-99.99,,2013-02-12 08:21:00,
2013-02-12 00:31:00,34.0,2.0,-100.00,NNE,20,6.0,8.0,25,-99.99,,,-99.99,,2013-02-12 08:31:00,
2013-02-12 00:41:00,34.0,2.0,-100.00,North,6,5.0,7.0,25,-99.99,,,-99.99,,2013-02-12 08:41:00,
2013-02-12 00:52:00,34.0,2.0,-100.00,North,2,5.0,7.0,25,-99.99,,,-99.99,,2013-02-12 08:52:00,
2013-02-12 01:01:00,34.0,2.0,-100.00,NNE,16,5.0,8.0,25,-99.99,,,-99.99,,2013-02-12 09:01:00,
2013-02-12 01:11:00,34.0,1.0,-100.00,North,6,6.0,7.0,24,-99.99,,,-99.99,,2013-02-12 09:11:00,
2013-02-12 01:31:00,35.0,3.0,-100.00,North,7,7.0,9.0,25,-99.99,,,-99.99,,2013-02-12 09:31:00,
2013-02-12 01:41:00,35.0,3.0,-100.00,North,1,6.0,7.0,25,-99.99,,,-99.99,,2013-02-12 09:41:00,
2013-02-12 01:51:00,35.0,3.0,-100.00,North,1,6.0,7.0,25,-99.99,,,-99.99,,2013-02-12 09:51:00,
2013-02-12 02:01:00,34.0,4.0,-100.00,NNE,16,4.0,5.0,27,-99.99,,,-99.99,,2013-02-12 10:01:00,
2013-02-12 02:11:00,34.0,4.0,-100.00,NNE,24,3.0,4.0,28,-99.99,,,-99.99,,2013-02-12 10:11:00,
2013-02-12 02:31:00,34.0,5.0,-100.00,NNE,29,5.0,6.0,29,-99.99,,,-99.99,,2013-02-12 10:31:00,
2013-02-12 02:43:00,34.0,5.0,-100.00,NE,40,5.0,6.0,29,-99.99,,,-99.99,,2013-02-12 10:43:00,
2013-02-12 02:51:00,34.0,5.0,-100.00,NE,35,6.0,7.0,29,-99.99,,,-99.99,,2013-02-12 10:51:00,
2013-02-12 03:01:00,34.0,5.0,-100.00,NE,43,7.0,8.0,29,-99.99,,,-99.99,,2013-02-12 11:01:00,
2013-02-12 03:11:00,34.0,6.0,-100.00,NE,44,6.0,7.0,30,-99.99,,,-99.99,,2013-02-12 11:11:00,
2013-02-12 03:21:00,33.0,6.0,-100.00,NE,35,6.0,6.0,31,-99.99,,,-99.99,,2013-02-12 11:21:00,
2013-02-12 03:41:00,34.0,6.0,-100.00,NE,35,4.0,5.0,30,-99.99,,,-99.99,,2013-02-12 11:41:00,
2013-02-12 03:52:00,34.0,5.0,-100.00,NE,40,5.0,6.0,29,-99.99,,,-99.99,,2013-02-12 11:52:00,
2013-02-12 04:01:00,34.0,5.0,-100.00,NE,40,5.0,6.0,29,-99.99,,,-99.99,,2013-02-12 12:01:00,
2013-02-12 04:11:00,35.0,5.0,-100.00,NE,34,7.0,8.0,28,-99.99,,,-99.99,,2013-02-12 12:11:00,
2013-02-12 04:32:00,34.0,5.0,-100.00,NNE,21,5.0,6.0,29,-99.99,,,-99.99,,2013-02-12 12:32:00,
2013-02-12 04:42:00,34.0,5.0,-100.00,NE,36,4.0,6.0,29,-99.99,,,-99.99,,2013-02-12 12:42:00,
2013-02-12 04:52:00,35.0,6.0,-100.00,NNE,31,4.0,6.0,29,-99.99,,,-99.99,,2013-02-12 12:52:00,
2013-02-12 05:01:00,35.0,6.0,-100.00,NNE,16,4.0,6.0,29,-99.99,,,-99.99,,2013-02-12 13:01:00,
2013-02-12 05:11:00,34.0,4.0,-100.00,NNE,20,5.0,7.0,28,-99.99,,,-99.99,,2013-02-12 13:11:00,
2013-02-12 05:31:00,34.0,5.0,-100.00,North,359,2.0,4.0,29,-99.99,,,-99.99,,2013-02-12 13:31:00,
2013-02-12 05:42:00,34.0,5.0,-100.00,NE,36,2.0,4.0,29,-99.99,,,-99.99,,2013-02-12 13:42:00,
2013-02-12 05:51:00,34.0,4.0,-100.00,NE,40,3.0,4.0,28,-99.99,,,-99.99,,2013-02-12 13:51:00,
2013-02-12 06:01:00,34.0,4.0,-100.00,NNE,33,4.0,5.0,28,-99.99,,,-99.99,,2013-02-12 14:01:00,
2013-02-12 06:11:00,34.0,4.0,-100.00,NNE,23,4.0,5.0,27,-99.99,,,-99.99,,2013-02-12 14:11:00,
2013-02-12 06:21:00,34.0,4.0,-100.00,NNE,22,4.0,6.0,27,-99.99,,,-99.99,,2013-02-12 14:21:00,
2013-02-12 06:31:00,34.0,3.0,-100.00,NNE,32,3.0,5.0,26,-99.99,,,-99.99,,2013-02-12 14:31:00,
2013-02-12 06:41:00,34.0,3.0,-100.00,NE,44,2.0,4.0,26,-99.99,,,-99.99,,2013-02-12 14:41:00,
2013-02-12 06:52:00,34.0,3.0,-100.00,NE,49,3.0,5.0,26,-99.99,,,-99.99,,2013-02-12 14:52:00,
2013-02-12 07:01:00,34.0,3.0,-100.00,NE,41,4.0,5.0,26,-99.99,,,-99.99,,2013-02-12 15:01:00,
2013-02-12 07:11:00,34.0,3.0,-100.00,NE,43,4.0,6.0,26,-99.99,,,-99.99,,2013-02-12 15:11:00,
2013-02-12 07:32:00,34.0,3.0,-100.00,NE,50,5.0,8.0,26,-99.99,,,-99.99,,2013-02-12 15:32:00,
2013-02-12 07:41:00,34.0,3.0,-100.00,NE,45,4.0,6.0,26,-99.99,,,-99.99,,2013-02-12 15:41:00,
2013-02-12 07:52:00,35.0,4.0,-100.00,NE,39,4.0,5.0,26,-99.99,,,-99.99,,2013-02-12 15:52:00,
2013-02-12 08:01:00,36.0,4.0,-100.00,NE,54,3.0,4.0,25,-99.99,,,-99.99,,2013-02-12 16:01:00,
2013-02-12 08:11:00,37.0,4.0,-100.00,NE,55,3.0,7.0,24,-99.99,,,-99.99,,2013-02-12 16:11:00,
2013-02-12 08:22:00,38.0,4.0,-100.00,NNE,29,7.0,11.0,24,-99.99,,,-99.99,,2013-02-12 16:22:00,
2013-02-12 08:31:00,38.0,4.0,-100.00,NNE,29,7.0,11.0,24,-99.99,,,-99.99,,2013-02-12 16:31:00,
2013-02-12 08:41:00,39.0,4.0,-100.00,NE,35,7.0,13.0,23,-99.99,,,-99.99,,2013-02-12 16:41:00,
2013-02-12 08:51:00,40.0,3.0,-100.00,NE,44,9.0,14.0,21,-99.99,,,-99.99,,2013-02-12 16:51:00,
2013-02-12 09:01:00,40.0,3.0,-100.00,NE,44,9.0,14.0,21,-99.99,,,-99.99,,2013-02-12 17:01:00,
2013-02-12 09:11:00,40.0,3.0,-100.00,NE,42,10.0,16.0,21,-99.99,,,-99.99,,2013-02-12 17:11:00,
2013-02-12 09:31:00,40.0,2.0,-100.00,NE,44,12.0,19.0,20,-99.99,,,-99.99,,2013-02-12 17:31:00,
2013-02-12 09:41:00,40.0,2.0,-100.00,NE,34,12.0,17.0,20,-99.99,,,-99.99,,2013-02-12 17:41:00,
2013-02-12 09:52:00,41.0,3.0,-100.00,NE,44,11.0,17.0,20,-99.99,,,-99.99,,2013-02-12 17:52:00,
2013-02-12 10:01:00,41.0,3.0,-100.00,NE,56,13.0,19.0,20,-99.99,,,-99.99,,2013-02-12 18:01:00,
2013-02-12 10:11:00,41.0,3.0,-100.00,NE,55,14.0,20.0,20,-99.99,,,-99.99,,2013-02-12 18:11:00,
2013-02-12 10:22:00,41.0,3.0,-100.00,ENE,58,14.0,19.0,20,-99.99,,,-99.99,,2013-02-12 18:22:00,
2013-02-12 10:31:00,41.0,3.0,-100.00,ENE,60,13.0,19.0,20,-99.99,,,-99.99,,2013-02-12 18:31:00,
2013-02-12 10:41:00,41.0,3.0,-100.00,ENE,60,13.0,19.0,20,-99.99,,,-99.99,,2013-02-12 18:41:00,
2013-02-12 10:51:00,41.0,3.0,-100.00,ENE,58,13.0,19.0,20,-99.99,,,-99.99,,2013-02-12 18:51:00,
2013-02-12 11:01:00,41.0,4.0,-100.00,NE,50,12.0,18.0,21,-99.99,,,-99.99,,2013-02-12 19:01:00,
2013-02-12 11:11:00,42.0,5.0,-100.00,NE,51,12.0,18.0,21,-99.99,,,-99.99,,2013-02-12 19:11:00,
2013-02-12 11:21:00,42.0,5.0,-100.00,NE,50,12.0,17.0,21,-99.99,,,-99.99,,2013-02-12 19:21:00,
2013-02-12 11:31:00,42.0,5.0,-100.00,NE,53,11.0,16.0,21,-99.99,,,-99.99,,2013-02-12 19:31:00,
2013-02-12 11:41:00,42.0,5.0,-100.00,ENE,60,11.0,16.0,21,-99.99,,,-99.99,,2013-02-12 19:41:00,
2013-02-12 11:51:00,42.0,5.0,-100.00,ENE,63,10.0,15.0,21,-99.99,,,-99.99,,2013-02-12 19:51:00,
2013-02-12 12:01:00,43.0,6.0,-100.00,ENE,59,10.0,17.0,21,-99.99,,,-99.99,,2013-02-12 20:01:00,
2013-02-12 12:11:00,43.0,6.0,-100.00,ENE,63,12.0,17.0,21,-99.99,,,-99.99,,2013-02-12 20:11:00,
2013-02-12 12:21:00,43.0,6.0,-100.00,NE,56,11.0,16.0,21,-99.99,,,-99.99,,2013-02-12 20:21:00,
2013-02-12 12:31:00,43.0,6.0,-100.00,NE,56,11.0,16.0,21,-99.99,,,-99.99,,2013-02-12 20:31:00,
2013-02-12 12:41:00,43.0,6.0,-100.00,NE,56,11.0,16.0,21,-99.99,,,-99.99,,2013-02-12 20:41:00,
2013-02-12 12:51:00,45.0,6.0,-100.00,NE,56,11.0,15.0,20,-99.99,,,-99.99,,2013-02-12 20:51:00,
2013-02-12 13:01:00,45.0,5.0,-100.00,ENE,58,11.0,15.0,19,-99.99,,,-99.99,,2013-02-12 21:01:00,
2013-02-12 13:11:00,46.0,7.0,-100.00,ENE,60,10.0,16.0,20,-99.99,,,-99.99,,2013-02-12 21:11:00,
2013-02-12 13:21:00,47.0,6.0,-100.00,NNE,30,9.0,14.0,18,-99.99,,,-99.99,,2013-02-12 21:21:00,
2013-02-12 13:31:00,47.0,4.0,-100.00,NNE,15,10.0,15.0,17,-99.99,,,-99.99,,2013-02-12 21:31:00,
2013-02-12 13:41:00,48.0,5.0,-100.00,NNE,27,11.0,18.0,17,-99.99,,,-99.99,,2013-02-12 21:41:00,
2013-02-12 13:51:00,48.0,5.0,-100.00,NNE,28,12.0,19.0,17,-99.99,,,-99.99,,2013-02-12 21:51:00,
2013-02-12 14:01:00,48.0,5.0,-100.00,NNE,24,12.0,18.0,17,-99.99,,,-99.99,,2013-02-12 22:01:00,
2013-02-12 14:12:00,48.0,5.0,-100.00,NNE,26,11.0,17.0,17,-99.99,,,-99.99,,2013-02-12 22:12:00,
2013-02-12 14:21:00,48.0,5.0,-100.00,NNE,20,12.0,17.0,17,-99.99,,,-99.99,,2013-02-12 22:21:00,
2013-02-12 14:31:00,48.0,7.0,-100.00,NNE,17,12.0,18.0,18,-99.99,,,-99.99,,2013-02-12 22:31:00,
2013-02-12 14:41:00,48.0,7.0,-100.00,NNE,26,12.0,20.0,18,-99.99,,,-99.99,,2013-02-12 22:41:00,
2013-02-12 14:51:00,48.0,7.0,-100.00,NNE,16,11.0,16.0,18,-99.99,,,-99.99,,2013-02-12 22:51:00,
2013-02-12 15:01:00,48.0,7.0,-100.00,NNE,28,12.0,16.0,18,-99.99,,,-99.99,,2013-02-12 23:01:00,
2013-02-12 15:11:00,48.0,8.0,-100.00,NNE,18,10.0,14.0,19,-99.99,,,-99.99,,2013-02-12 23:11:00,
2013-02-12 15:21:00,48.0,7.0,-100.00,North,11,10.0,14.0,18,-99.99,,,-99.99,,2013-02-12 23:21:00,
2013-02-12 15:31:00,48.0,7.0,-100.00,North,11,10.0,14.0,18,-99.99,,,-99.99,,2013-02-12 23:31:00,
2013-02-12 15:41:00,48.0,7.0,-100.00,North,11,10.0,14.0,18,-99.99,,,-99.99,,2013-02-12 23:41:00,
2013-02-12 15:52:00,48.0,9.0,-100.00,NE,39,11.0,18.0,20,-99.99,,,-99.99,,2013-02-12 23:52:00,
2013-02-12 16:02:00,47.0,7.0,-100.00,NE,52,11.0,15.0,19,-99.99,,,-99.99,,2013-02-13 00:02:00,
2013-02-12 16:11:00,47.0,8.0,-100.00,ENE,57,11.0,16.0,20,-99.99,,,-99.99,,2013-02-13 00:11:00,
2013-02-12 16:21:00,46.0,7.0,-100.00,NE,53,11.0,17.0,20,-99.99,,,-99.99,,2013-02-13 00:21:00,
2013-02-12 16:32:00,46.0,8.0,-100.00,ENE,57,11.0,16.0,21,-99.99,,,-99.99,,2013-02-13 00:32:00,
2013-02-12 16:42:00,45.0,7.0,-100.00,ENE,60,11.0,16.0,21,-99.99,,,-99.99,,2013-02-13 00:42:00,
2013-02-12 16:51:00,45.0,7.0,-100.00,NE,48,11.0,15.0,21,-99.99,,,-99.99,,2013-02-13 00:51:00,
2013-02-12 17:01:00,45.0,7.0,-100.00,NE,50,10.0,14.0,21,-99.99,,,-99.99,,2013-02-13 01:01:00,
2013-02-12 17:11:00,45.0,7.0,-100.00,NE,49,9.0,12.0,21,-99.99,,,-99.99,,2013-02-13 01:11:00,
2013-02-12 17:21:00,44.0,8.0,-100.00,NE,51,10.0,13.0,22,-99.99,,,-99.99,,2013-02-13 01:21:00,
2013-02-12 17:31:00,43.0,7.0,-100.00,NE,47,9.0,12.0,22,-99.99,,,-99.99,,2013-02-13 01:31:00,
2013-02-12 17:42:00,43.0,8.0,-100.00,NE,48,8.0,10.0,23,-99.99,,,-99.99,,2013-02-13 01:42:00,
2013-02-12 17:51:00,41.0,7.0,-100.00,NE,49,8.0,10.0,24,-99.99,,,-99.99,,2013-02-13 01:51:00,
2013-02-12 18:01:00,41.0,7.0,-100.00,NE,49,8.0,10.0,24,-99.99,,,-99.99,,2013-02-13 02:01:00,
2013-02-12 18:11:00,40.0,7.0,-100.00,NE,48,8.0,10.0,25,-99.99,,,-99.99,,2013-02-13 02:11:00,
2013-02-12 18:21:00,40.0,7.0,-100.00,NE,48,8.0,10.0,25,-99.99,,,-99.99,,2013-02-13 02:21:00,
2013-02-12 18:31:00,40.0,8.0,-100.00,NE,54,8.0,9.0,26,-99.99,,,-99.99,,2013-02-13 02:31:00,
2013-02-12 18:41:00,39.0,7.0,-100.00,NE,47,8.0,9.0,26,-99.99,,,-99.99,,2013-02-13 02:41:00,
2013-02-12 18:52:00,38.0,7.0,-100.00,NE,50,7.0,8.0,27,-99.99,,,-99.99,,2013-02-13 02:52:00,
2013-02-12 19:01:00,38.0,7.0,-100.00,NE,48,6.0,7.0,27,-99.99,,,-99.99,,2013-02-13 03:01:00,
2013-02-12 19:11:00,38.0,7.0,-100.00,NE,50,6.0,7.0,27,-99.99,,,-99.99,,2013-02-13 03:11:00,
2013-02-12 19:21:00,38.0,7.0,-100.00,NE,56,6.0,8.0,27,-99.99,,,-99.99,,2013-02-13 03:21:00,
2013-02-12 19:32:00,38.0,6.0,-100.00,ENE,62,8.0,10.0,26,-99.99,,,-99.99,,2013-02-13 03:32:00,
2013-02-12 19:41:00,38.0,7.0,-100.00,ENE,63,9.0,11.0,27,-99.99,,,-99.99,,2013-02-13 03:41:00,
2013-02-12 19:51:00,38.0,7.0,-100.00,ENE,68,8.0,10.0,27,-99.99,,,-99.99,,2013-02-13 03:51:00,
2013-02-12 20:01:00,38.0,6.0,-100.00,ENE,61,7.0,8.0,26,-99.99,,,-99.99,,2013-02-13 04:01:00,
2013-02-12 20:11:00,39.0,6.0,-100.00,NE,50,6.0,9.0,25,-99.99,,,-99.99,,2013-02-13 04:11:00,
2013-02-12 20:21:00,40.0,6.0,-100.00,NNE,28,7.0,14.0,24,-99.99,,,-99.99,,2013-02-13 04:21:00,
2013-02-12 20:31:00,40.0,6.0,-100.00,North,353,4.0,6.0,24,-99.99,,,-99.99,,2013-02-13 04:31:00,
2013-02-12 20:41:00,40.0,7.0,-100.00,NNE,19,5.0,7.0,25,-99.99,,,-99.99,,2013-02-13 04:41:00,
2013-02-12 20:51:00,39.0,7.0,-100.00,North,4,4.0,7.0,26,-99.99,,,-99.99,,2013-02-13 04:51:00,
2013-02-12 21:01:00,39.0,7.0,-100.00,WNW,295,3.0,4.0,26,-99.99,,,-99.99,,2013-02-13 05:01:00,
2013-02-12 21:11:00,39.0,8.0,-100.00,North,9,3.0,4.0,27,-99.99,,,-99.99,,2013-02-13 05:11:00,
2013-02-12 21:31:00,40.0,9.0,-100.00,ENE,74,2.0,6.0,27,-99.99,,,-99.99,,2013-02-13 05:31:00,
2013-02-12 21:41:00,40.0,7.0,-100.00,NNE,16,3.0,7.0,25,-99.99,,,-99.99,,2013-02-13 05:41:00,
2013-02-12 21:52:00,40.0,7.0,-100.00,NNE,16,3.0,5.0,25,-99.99,,,-99.99,,2013-02-13 05:52:00,
2013-02-12 22:01:00,40.0,7.0,-100.00,NNE,16,3.0,5.0,25,-99.99,,,-99.99,,2013-02-13 06:01:00,
2013-02-12 22:11:00,37.0,8.0,-100.00,NE,47,7.0,9.0,29,-99.99,,,-99.99,,2013-02-13 06:11:00,
2013-02-12 22:31:00,38.0,9.0,-100.00,NE,50,9.0,11.0,29,-99.99,,,-99.99,,2013-02-13 06:31:00,
2013-02-12 22:41:00,38.0,9.0,-100.00,NE,50,9.0,11.0,29,-99.99,,,-99.99,,2013-02-13 06:41:00,
2013-02-12 22:51:00,38.0,9.0,-100.00,NE,50,9.0,12.0,29,-99.99,,,-99.99,,2013-02-13 06:51:00,
2013-02-12 23:02:00,39.0,8.0,-100.00,NE,40,8.0,12.0,27,-99.99,,,-99.99,,2013-02-13 07:02:00,
2013-02-12 23:11:00,39.0,8.0,-100.00,NE,39,6.0,8.0,27,-99.99,,,-99.99,,2013-02-13 07:11:00,
2013-02-12 23:31:00,39.0,9.0,-100.00,NE,37,6.0,10.0,28,-99.99,,,-99.99,,2013-02-13 07:31:00,
2013-02-12 23:41:00,38.0,8.0,-100.00,NE,50,6.0,10.0,28,-99.99,,,-99.99,,2013-02-13 07:41:00,
2013-02-12 23:51:00,38.0,9.0,-100.00,ENE,60,5.0,8.0,29,-99.99,,,-99.99,,2013-02-13 07:51:00,